Weather History for Needles, CA

Change the Weather History Date:

Thursday, June 6, 2013

  Actual Average Record
Temperature  
Mean Temperature 97 °F -  
Max Temperature 114 °F 100 °F 114 °F (2002)
Min Temperature 80 °F 72 °F 54 °F (1993)
Cooling Degree Days 32    
Growing Degree Days 47 (Base 50)    
Moisture  
Dew Point 25 °F    
Average Humidity 8    
Maximum Humidity 15    
Minimum Humidity 4    
Precipitation  
Precipitation 0.00 in - - ()
Sea Level Pressure  
Sea Level Pressure 29.58 in    
Wind  
Wind Speed 5 mph (West)    
Max Wind Speed 14 mph    
Max Gust Speed -    
Visibility 10 miles    
Events      
Averages and records for this station are not official NWS values.
T = Trace of Precipitation, MM = Missing Value Source: NWS Daily Summary

Daily Weather History Graph

Daily Weather History Graph

Search for Another Location

Airport:

Trip Planner

Search our weather history database for the weather conditions in past years. The results will help you decide how hot, cold, wet, or windy it might be!

Date:

Astronomy

Jun. 06, 2013 Rise Set
Actual Time 5:25 AM PDT 7:49 PM PDT
Civil Twilight 4:55 AM PDT 8:18 PM PDT
Nautical Twilight 4:19 AM PDT 8:55 PM PDT
Astronomical Twilight 3:40 AM PDT 9:34 PM PDT
Moon 4:05 AM PDT (6/6) 6:18 PM PDT (6/6)
Length of Visible Light 15h 23m
Length of Day
14h 24m
Waning Crescent, 3% of the Moon is Illuminated
Jun 6
Waning Crescent
Jun 8
New
Jun 16
First Quarter
Jun 23
Full
Jun 29
Last Quarter

Hourly Weather History & Observations

Time (PDT) Temp. Dew Point Humidity Pressure Visibility Wind Dir Wind Speed Gust Speed Precip Events Conditions
12:56 AM 91.9 °F 21.0 °F 8% 29.61 in 10.0 mi WNW 5.8 mph - N/A   Clear
1:56 AM 88.0 °F 21.0 °F 9% 29.60 in 10.0 mi West 10.4 mph - N/A   Clear
2:56 AM 86.0 °F 23.0 °F 10% 29.60 in 10.0 mi Variable 3.5 mph - N/A   Clear
3:56 AM 82.0 °F 21.9 °F 11% 29.62 in 10.0 mi Calm Calm - N/A   Clear
4:56 AM 80.1 °F 23.0 °F 12% 29.62 in 10.0 mi WNW 3.5 mph - N/A   Clear
5:56 AM 82.0 °F 24.1 °F 12% 29.63 in 10.0 mi WNW 5.8 mph - N/A   Clear
6:56 AM 82.0 °F 30.0 °F 15% 29.65 in 10.0 mi NNW 3.5 mph - N/A   Clear
7:56 AM 86.0 °F 28.9 °F 13% 29.66 in 10.0 mi Calm Calm - N/A   Clear
8:56 AM 93.9 °F 28.9 °F 10% 29.66 in 10.0 mi NNE 3.5 mph - N/A   Clear
9:56 AM 97.0 °F 28.9 °F 9% 29.65 in 10.0 mi Calm Calm - N/A   Clear
10:56 AM 102.0 °F 28.9 °F 8% 29.65 in 10.0 mi Calm Calm - N/A   Clear
11:56 AM 106.0 °F 28.0 °F 7% 29.63 in 10.0 mi Calm Calm - N/A   Clear
12:56 PM 109.0 °F 28.0 °F 6% 29.61 in 10.0 mi East 5.8 mph - N/A   Clear
1:56 PM 113.0 °F 27.0 °F 5% 29.59 in 10.0 mi Variable 5.8 mph - N/A   Clear
2:56 PM 114.1 °F 25.0 °F 5% 29.56 in 10.0 mi NE 5.8 mph - N/A   Unknown
3:56 PM 113.0 °F 23.0 °F 4% 29.54 in 10.0 mi South 3.5 mph - N/A   Unknown
4:56 PM 111.9 °F 21.9 °F 4% 29.52 in 10.0 mi SE 3.5 mph - N/A   Unknown
5:56 PM 111.9 °F 23.0 °F 4% 29.50 in 10.0 mi NW 8.1 mph - N/A   Unknown
6:56 PM 111.0 °F 24.1 °F 5% 29.50 in 10.0 mi West 5.8 mph - N/A   Unknown
7:56 PM 108.0 °F 24.1 °F 5% 29.51 in 10.0 mi WSW 8.1 mph - N/A   Unknown
8:56 PM 104.0 °F 23.0 °F 6% 29.52 in 10.0 mi WSW 13.8 mph - N/A   Unknown
9:56 PM 100.9 °F 23.0 °F 6% 29.54 in 10.0 mi WSW 13.8 mph - N/A   Unknown
10:56 PM 98.1 °F 21.9 °F 7% 29.54 in 10.0 mi WSW 13.8 mph - N/A   Unknown
11:56 PM 99.0 °F 23.0 °F 7% 29.53 in 10.0 mi WSW 11.5 mph - N/A   Clear